Regional Weather Roundup
Issued by NWS

Home | Current Version | Previous Version | Text Only | Print | Product List | Glossary Off
Versions: 1 2 3 4 5 6 7 8 9 10 11 12 13 14 15 16 17 18 19 20 21 22 23 24 25 26 27

000
ASUS45 KCYS 012210
RWRWY

WYOMING REGIONAL WEATHER ROUNDUP
NATIONAL WEATHER SERVICE CHEYENNE WY
400 PM MDT SUN MAY 01 2016

NOTE:  "FAIR" INDICATES FEW OR NO CLOUDS BELOW 12,000 FEET
WITH NO SIGNIFICANT WEATHER AND/OR OBSTRUCTIONS TO VISIBILITY.

WYZ001-012300-
YELLOWSTONE NATIONAL PARK

CITY           SKY/WX    TMP DP  RH WIND       PRES   REMARKS
LK YELLOWSTONE   N/A     44  14  29 S3        30.27F
W YELLOWSTONE  NOT AVBL

$$
WYZ002>013-054>058-071-098>099-012300-
NORTHERN WYOMING

CITY           SKY/WX    TMP DP  RH WIND       PRES   REMARKS
JACKSON        MOSUNNY   54  18  24 NE16G24   30.18F
CODY           FAIR      55  27  33 CALM      30.24F
GREYBULL       FAIR      60  24  25 E6        30.21F
WORLAND        PTSUNNY   57  27  31 MISG      30.24F
SHERIDAN       FAIR      58  29  33 CALM      30.24F
BUFFALO          N/A    N/A N/A N/A MISG      30.26F
GILLETTE       FAIR      53  28  38 W3        30.26F
HULETT         FAIR      55  28  35 N8        30.26F
NEWCASTLE      FAIR      55  21  26 NW8       30.24F

$$
WYZ014>020-022>026-101>103-012300-
CENTRAL WYOMING

CITY           SKY/WX    TMP DP  RH WIND       PRES   REMARKS
BIG PINEY      FAIR      51  17  26 CALM      30.19F
PINEDALE       FAIR      50  16  25 E14G20    30.21F
DUBOIS         NOT AVBL
LANDER         FAIR      48  28  46 N5        30.26F
RIVERTON       FAIR      49  28  44 VRB5      30.28F
CASPER         FAIR      50  25  37 NE10      30.25F
DOUGLAS        PTSUNNY   47  29  49 SW8       30.27F

$$
WYZ021-027>030-104>119-012300-
SOUTHERN WYOMING

CITY           SKY/WX    TMP DP  RH WIND       PRES   REMARKS
EVANSTON       FAIR      44  21  40 E21G36    30.16R
KEMMERER       FAIR      45  21  39 E26G33    30.19F
FORT BRIDGER   MOCLDY    45  25  45 E16G25    30.22S
ROCK SPRINGS   FAIR      46  22  38 E28G38    30.19F
DIXON          FAIR      54  23  30 E9G16     30.11F
RAWLINS        FAIR      44  24  45 E23G30    30.22F
SARATOGA       FAIR      45  27  49 E8G20     30.18F
LARAMIE        CLOUDY    34  22  61 N6        30.24S WCI  29
CHEYENNE       FAIR      40  24  53 NE8       30.26F WCI  34
TORRINGTON     FAIR      53  24  32 N3        30.23F
PINE BLUFFS    FAIR      43  28  56 N6G16     30.27S

$$




USA.gov is the U.S. government's official web portal to all federal, state and local government web resources and services.